RH
43 42 42 44 48 52 53 48 45 46 44 49 57 56 53 53 52 55 59 62 70 74 68 69 70 66 67 69 69 72 74 73 75 79 80 79 81 81 82 86 87 87 87 87 87 87 87 86 84 86 89 89 89 89 88 91 96 94 91 92 95 97 97 96 97 98 96 95 95 95 94 93 91 90 93 96 98 99 98 95 95 97 99 99 99 98 96
45 44 43 46 49 52 54 48 43 45 45 48 54 54 52 52 50 51 55 62 69 67 61 62 65 65 69 72 70 69 68 68 70 77 83 84 84 86 84 83 83 84 84 84 83 83 82 81 80 82 86 87 89 90 88 89 92 91 91 93 96 98 97 96 98 100 97 95 95 96 95 93 92 92 94 97 99 99 99 99 98 99 100 98 98 99 97
43 43 42 46 49 51 53 51 46 47 48 49 53 55 55 55 54 53 56 66 73 67 58 62 67 67 68 69 69 68 67 67 68 74 83 83 81 82 81 79 80 81 80 79 79 79 79 78 77 79 83 86 90 95 95 94 94 93 94 96 95 94 94 94 97 98 97 95 93 92 90 88 91 96 96 98 100 99 99 100 99 99 100 99 97 99 99
41 40 39 42 44 45 51 57 57 55 55 55 54 55 59 60 58 60 62 67 74 69 61 64 68 67 66 67 68 68 70 72 72 73 78 78 77 77 77 76 78 78 78 78 78 77 75 74 73 74 79 83 88 93 96 97 98 97 96 95 91 90 90 91 95 96 94 94 95 95 93 92 95 99 99 99 100 100 99 99 100 100 100 98 94 92 93
41 40 38 41 43 45 54 63 64 61 59 58 55 56 60 57 55 62 64 62 68 73 70 68 66 63 64 66 64 63 66 70 70 70 71 71 73 74 75 75 74 74 77 79 79 77 75 74 73 74 80 86 91 96 98 98 96 93 92 89 85 83 82 84 90 93 91 92 95 97 98 98 98 100 100 100 100 99 98 97 94 89 85 82 78 74 71
41 41 41 42 45 53 62 65 64 63 62 59 59 62 62 57 56 60 61 58 62 69 70 68 63 59 62 66 65 63 64 66 66 66 66 68 72 75 74 73 74 77 79 81 81 80 77 74 73 76 84 90 92 92 92 90 86 83 82 79 75 75 77 78 82 84 85 87 89 89 89 91 94 96 98 97 93 90 85 78 68 60 54 50 47 45 42
37 40 40 44 57 64 65 64 63 63 61 57 58 61 57 56 59 58 57 62 66 67 70 70 63 59 63 67 66 65 64 64 64 65 66 70 73 75 74 76 79 82 82 82 82 80 78 74 70 72 79 83 83 80 79 78 74 73 74 72 68 68 69 70 73 75 78 79 81 81 79 79 80 79 76 74 70 67 62 54 48 42 35 30 25 22 21
38 40 38 46 64 68 63 65 66 66 66 62 61 64 63 61 61 59 61 69 69 65 67 69 65 65 67 65 64 65 64 63 64 65 67 71 75 78 79 81 83 82 81 82 81 78 76 72 68 69 72 74 73 71 70 69 67 68 72 72 70 68 66 65 65 67 70 73 74 73 71 70 71 68 65 63 61 60 57 53 52 49 43 40 40 35 29
41 40 37 45 63 70 69 73 73 72 76 73 67 70 69 63 62 61 65 75 73 64 63 67 68 68 67 65 65 65 65 65 67 68 71 75 79 82 83 81 81 81 80 80 77 72 72 73 71 71 70 69 68 66 66 66 67 70 72 72 73 73 70 69 68 66 68 70 71 70 69 69 68 65 65 64 62 65 70 67 65 66 63 62 60 53 45
42 40 41 44 57 69 73 75 74 74 77 74 73 77 72 65 66 66 67 73 74 66 63 69 71 66 65 69 70 69 71 71 70 71 74 75 77 80 79 78 79 79 77 74 71 69 70 72 72 71 70 68 66 64 64 65 67 70 71 72 75 77 75 75 74 73 72 71 72 73 71 73 75 73 71 66 59 66 77 76 70 72 74 73 70 62 48
42 44 44 43 53 67 71 72 71 71 72 71 73 81 81 74 72 72 73 76 75 69 67 71 70 64 68 76 74 72 76 74 70 70 70 71 74 74 72 74 75 75 74 71 68 67 68 68 67 67 66 63 59 57 56 57 59 62 65 68 72 75 78 79 78 79 79 77 77 76 72 72 76 76 75 69 60 63 76 78 71 70 71 70 73 71 51
44 46 43 43 57 70 72 70 67 66 70 71 70 78 87 83 75 75 78 80 79 74 69 70 71 67 71 78 78 77 80 75 70 69 68 68 70 69 70 75 74 71 70 67 64 64 66 64 62 62 61 59 57 57 55 55 57 59 60 61 62 64 67 69 69 71 74 76 78 78 75 74 74 73 75 75 69 69 77 77 70 68 67 65 68 71 59
44 48 45 45 61 73 70 66 66 65 67 68 68 78 88 83 74 73 77 82 86 84 76 77 85 84 79 81 82 82 81 76 71 70 70 69 69 69 73 75 70 65 66 64 61 62 63 60 58 59 59 59 60 61 61 62 64 63 61 59 58 57 56 56 57 60 63 67 70 72 73 75 76 76 77 77 76 76 78 74 69 70 72 69 68 68 63
44 48 45 45 61 77 75 67 65 65 67 70 75 82 87 81 74 71 76 86 93 93 88 88 92 90 83 82 85 84 81 78 76 75 75 74 75 77 78 74 68 67 68 65 61 60 59 56 54 57 59 59 59 59 60 60 60 59 58 56 52 50 49 50 53 55 57 59 62 63 64 66 68 69 69 69 71 72 70 68 69 73 74 72 69 65 63
47 43 46 51 64 77 78 72 66 66 73 81 82 81 80 79 76 74 80 90 92 91 94 96 93 88 85 85 86 83 81 80 79 78 77 77 80 82 77 72 70 68 65 61 56 54 53 51 50 51 54 53 52 53 54 54 53 52 53 52 48 46 47 48 49 51 52 54 56 58 58 57 57 59 59 60 62 63 63 64 65 65 66 67 66 63 61
51 47 56 69 74 74 76 78 75 75 83 89 88 85 82 78 76 76 84 94 92 88 94 99 94 90 88 87 86 83 81 79 78 77 77 78 81 80 73 69 67 63 58 55 53 51 51 51 49 49 49 48 49 51 51 51 50 49 49 49 48 48 49 50 51 52 52 53 54 54 54 53 53 54 55 55 55 57 58 59 58 57 56 56 57 56 55
64 64 68 72 73 74 79 84 84 85 88 90 91 91 85 78 76 78 87 97 94 88 91 94 91 88 88 85 83 81 78 76 74 72 71 71 73 74 70 66 62 58 55 53 52 53 55 54 52 50 50 50 52 54 54 52 50 51 51 51 51 52 53 54 56 55 56 57 57 55 53 53 55 56 56 56 55 54 54 54 55 55 53 50 50 50 48
76 75 71 69 72 80 87 90 91 94 95 95 96 94 87 82 81 83 90 97 94 88 86 85 82 81 78 74 73 73 71 69 66 63 61 61 63 63 60 56 53 53 55 55 53 52 53 55 56 54 52 52 51 52 52 50 49 51 52 51 53 56 56 57 57 55 56 58 57 54 53 55 57 57 56 57 58 57 56 55 54 53 52 50 48 48 47
76 74 73 75 82 89 93 92 95 99 98 94 91 90 89 89 89 90 93 92 86 80 75 72 70 70 68 68 69 67 64 60 58 55 52 52 53 52 50 50 51 53 56 56 54 52 52 54 56 53 51 50 49 49 50 49 50 54 54 53 56 59 60 61 61 59 58 56 54 56 60 60 59 59 58 58 59 57 55 55 55 54 53 52 50 50 50
70 71 77 83 89 95 95 93 94 95 92 89 89 92 95 97 96 96 93 84 75 71 68 66 67 68 67 65 62 60 61 61 59 55 50 47 47 46 46 49 52 53 54 53 53 54 54 53 53 52 52 53 53 53 54 54 56 59 58 58 61 64 65 65 63 60 60 58 56 60 64 63 62 63 62 59 58 59 59 61 62 60 57 56 57 56 55
71 76 83 85 88 92 93 90 90 91 89 92 96 96 97 97 96 92 86 76 70 68 65 62 63 64 62 59 58 63 66 62 56 51 48 46 47 46 46 47 49 52 54 52 51 53 53 53 54 55 55 56 55 55 56 55 55 56 58 59 60 60 60 59 56 55 58 60 58 59 61 61 61 61 60 56 54 56 58 57 55 54 54 55 56 57 57
77 84 86 86 88 92 90 85 87 90 92 94 95 91 88 87 85 81 79 76 72 69 65 61 61 63 64 65 66 66 63 57 54 53 52 53 53 52 53 54 54 54 55 53 52 53 54 55 56 55 54 54 53 53 53 52 51 52 53 54 54 52 51 51 49 49 52 54 53 53 55 56 57 55 53 51 50 51 50 47 41 39 41 47 51 53 54
80 82 82 84 87 90 88 83 82 86 88 89 90 89 86 84 79 74 74 74 71 68 64 60 57 57 59 61 63 61 58 58 60 59 59 60 60 61 63 61 57 55 54 53 53 54 54 53 52 51 50 49 47 47 47 46 46 46 45 46 47 46 45 45 42 43 47 48 47 47 50 50 50 51 50 48 49 51 47 40 31 26 26 31 39 47 52
77 79 82 81 78 80 84 82 78 80 83 85 89 90 88 87 84 80 78 76 73 71 68 62 56 54 54 57 59 58 58 60 59 58 59 60 58 59 60 56 53 53 53 53 53 52 50 49 47 45 45 43 42 42 42 41 41 41 40 40 39 36 35 34 31 31 37 40 40 42 45 45 44 46 46 44 46 49 47 41 34 26 22 23 29 35 40
77 83 88 86 80 79 80 77 72 71 71 74 80 81 78 77 77 76 76 75 72 70 69 65 61 58 56 57 57 56 55 57 56 54 55 53 51 51 51 49 50 52 52 51 50 47 45 44 43 42 42 41 39 38 37 35 34 33 30 28 29 27 22 20 24 31 38 44 47 48 48 47 47 49 50 51 52 51 49 50 51 45 40 45 50 43 33
87 86 84 83 82 78 71 69 70 67 62 62 65 66 64 63 64 64 65 66 68 68 67 65 63 61 59 59 59 58 55 54 52 51 49 48 48 49 49 50 52 51 50 48 46 43 42 40 38 37 36 33 32 30 28 26 26 24 21 24 32 31 19 14 27 43 52 58 63 60 54 55 59 61 61 62 62 59 55 57 61 57 55 65 69 53 34
91 86 77 74 76 73 67 66 68 66 61 59 59 59 58 57 58 58 58 58 60 61 61 59 59 59 58 58 57 55 52 49 48 47 47 47 48 50 50 51 51 48 46 44 41 39 38 34 31 30 29 26 25 25 24 24 23 22 20 22 28 30 21 18 33 53 64 70 69 60 57 65 70 70 70 69 67 66 65 66 67 62 61 68 70 56 44
78 77 73 70 70 69 66 63 62 61 59 56 55 57 57 56 54 54 54 52 51 53 55 57 58 58 57 55 51 47 47 46 46 46 48 50 52 52 51 50 47 45 43 40 37 36 35 32 29 27 26 26 26 25 25 25 23 22 22 20 21 25 23 25 40 60 71 73 67 61 67 78 79 75 75 76 73 70 70 71 70 67 65 69 69 58 49
68 65 64 65 65 65 64 62 61 60 58 53 51 52 53 53 52 54 56 55 54 55 57 57 55 54 54 52 48 46 47 48 49 50 52 53 52 50 47 46 44 42 39 37 36 35 33 31 29 28 27 28 27 26 25 25 22 22 23 20 20 25 28 32 48 68 76 73 71 73 79 83 80 76 76 76 73 70 69 69 69 66 66 70 72 66 58
55 56 58 61 62 63 64 63 59 57 55 52 50 49 48 48 51 54 56 55 53 53 52 50 49 48 48 48 48 48 49 51 53 54 54 52 51 50 49 47 45 43 40 35 34 34 34 31 29 29 29 28 27 25 25 25 25 28 30 27 26 30 34 39 52 69 79 80 80 79 77 75 75 74 72 70 68 66 65 65 65 64 64 68 73 75 75
42 49 52 54 54 53 53 52 50 50 50 49 48 48 47 48 50 52 52 50 48 47 47 47 46 47 47 48 50 51 52 54 54 53 51 49 48 49 49 45 41 39 37 33 30 31 32 31 29 29 29 27 27 27 25 24 26 32 39 44 44 43 44 52 62 72 80 83 82 77 72 71 72 72 71 70 69 67 66 66 65 65 65 66 71 76 78
37 41 42 43 43 44 44 44 44 46 46 45 45 46 45 46 49 50 49 47 45 45 46 46 46 47 48 49 50 51 51 51 50 48 46 44 42 42 42 40 35 33 31 31 31 31 31 31 31 31 31 29 28 28 25 24 28 37 49 61 66 59 55 63 75 81 80 79 79 77 73 72 73 73 74 74 72 70 72 71 68 69 69 68 71 75 74
37 39 39 40 41 41 42 43 43 43 44 45 46 46 46 47 48 47 45 45 46 46 47 47 47 47 47 47 47 47 47 47 47 47 45 42 40 39 38 36 34 32 31 31 31 30 30 32 34 34 33 31 30 29 26 26 33 43 53 65 74 73 69 69 74 79 79 76 77 79 78 76 76 76 75 75 75 74 76 75 72 72 72 70 72 76 73
38 39 40 41 41 42 43 44 44 45 46 47 47 47 47 48 48 47 46 48 48 47 46 45 44 44 44 44 45 46 46 47 49 48 44 41 40 39 36 33 32 32 32 32 32 31 31 35 37 36 34 33 32 31 28 29 39 48 51 56 65 72 77 77 77 79 81 80 78 79 78 77 79 78 75 73 74 73 74 74 72 71 70 69 72 76 70
41 42 42 43 42 43 44 45 44 44 45 45 46 47 48 49 49 48 49 48 46 43 42 42 43 44 44 45 46 46 45 46 47 45 42 41 39 37 36 38 39 38 34 32 31 31 33 37 39 38 36 35 35 33 29 32 42 50 50 55 65 70 74 78 77 75 76 76 74 73 71 68 68 69 66 63 61 60 61 63 63 61 60 60 62 65 63
43 41 41 42 43 43 43 44 44 43 44 45 46 48 49 50 48 46 44 42 40 39 41 42 44 45 45 44 44 44 44 45 45 43 41 40 38 39 44 49 52 53 48 40 33 32 37 41 40 39 38 37 38 37 32 33 44 56 60 64 72 74 72 73 73 70 68 66 64 63 63 59 56 55 53 49 46 45 47 52 53 51 50 50 50 52 54
45 44 43 44 44 43 43 43 44 44 45 46 47 48 48 48 45 41 38 37 37 39 42 42 42 44 44 44 44 44 45 46 45 42 40 39 40 45 51 52 53 56 57 49 38 36 41 44 41 40 42 42 40 40 36 31 40 60 71 70 68 68 67 65 63 61 60 58 55 53 51 49 46 45 44 43 41 38 39 45 50 48 46 47 47 47 48
46 46 45 44 43 41 40 42 44 45 45 46 47 48 46 43 40 36 35 36 39 40 41 41 41 42 43 44 44 44 44 44 44 43 42 41 45 50 54 51 49 51 50 45 39 39 43 45 42 42 46 45 41 43 42 33 33 52 67 66 62 63 64 59 55 54 52 50 47 45 42 40 40 41 41 42 43 41 36 38 45 48 46 45 46 46 45
43 42 40 41 41 41 42 44 46 47 46 45 45 44 39 35 34 35 37 39 39 40 42 41 40 40 42 42 43 43 41 40 43 46 46 46 48 51 50 44 40 40 40 39 39 42 43 43 45 49 50 47 47 51 48 35 33 49 65 65 60 59 59 55 53 51 48 44 41 40 39 38 38 39 40 41 43 44 40 37 41 45 44 42 42 43 42
43 39 38 41 43 44 45 46 46 45 43 41 38 35 32 31 33 36 38 37 35 37 42 41 38 39 40 39 41 44 42 40 44 50 51 50 51 52 50 44 39 38 38 39 42 45 45 44 51 60 58 51 53 58 51 38 40 56 66 63 58 55 54 52 51 48 45 42 40 39 41 39 36 37 40 40 39 40 41 40 40 42 42 40 41 41 39
42 40 42 45 45 45 44 42 40 39 38 37 34 32 33 35 35 36 38 37 34 37 42 41 37 38 39 38 41 46 43 40 45 51 52 52 50 46 46 47 44 39 39 42 44 46 46 46 54 64 63 56 55 57 52 46 54 64 63 57 55 54 52 50 49 47 45 43 40 38 39 40 38 38 39 40 38 37 38 39 41 41 41 41 40 40 39
43 44 46 45 44 42 39 35 33 34 36 36 35 34 36 38 37 36 38 38 36 38 43 41 38 38 40 41 44 47 44 44 48 50 50 52 49 40 42 50 47 38 38 44 47 49 54 57 58 61 61 58 59 59 55 54 61 65 59 54 53 53 51 50 49 47 45 43 40 37 36 37 38 38 36 37 39 37 36 38 41 41 40 41 40 39 38
45 46 46 44 41 38 34 30 30 33 36 37 38 38 39 42 41 39 38 39 38 39 42 40 37 38 41 42 43 45 45 47 50 50 50 52 48 40 43 53 50 39 38 46 52 58 67 71 67 62 60 60 61 62 60 60 62 61 57 53 52 52 51 51 48 45 43 41 39 37 35 33 35 36 35 36 38 37 35 37 41 40 38 39 39 36 36
46 46 45 42 39 35 32 30 31 33 35 38 40 39 38 40 41 40 39 39 39 39 40 40 39 40 42 41 40 41 42 45 47 48 48 47 44 43 46 49 46 40 41 47 55 63 70 69 65 63 63 64 64 63 64 64 62 57 54 55 55 53 52 51 47 44 42 38 35 33 32 30 32 35 33 31 34 35 33 33 36 37 35 35 35 33 32
46 45 43 40 36 33 31 31 32 33 35 38 40 39 38 38 40 40 39 39 39 39 40 41 42 41 41 40 40 39 39 40 42 43 41 38 39 45 48 43 38 39 43 46 53 63 68 66 64 65 66 66 65 66 66 64 60 55 55 56 56 54 52 50 46 42 37 32 30 31 32 32 35 36 31 26 29 33 33 30 32 35 34 31 29 29 28
46 44 41 37 34 31 30 32 33 34 37 38 38 38 38 38 39 40 40 39 40 40 40 41 41 40 39 38 38 38 39 40 41 42 42 39 38 41 41 37 36 39 43 47 55 63 66 64 65 68 69 68 67 67 68 65 60 57 58 58 56 56 55 51 48 44 38 30 26 26 28 29 31 33 29 25 28 33 33 31 32 34 31 27 26 27 27
45 42 38 35 33 31 31 33 35 36 38 38 36 36 37 37 38 40 40 39 40 41 40 39 40 39 38 37 37 38 39 38 37 38 43 44 41 36 34 35 39 42 43 46 55 63 65 66 68 71 71 68 66 68 70 67 62 60 60 58 57 56 55 51 50 50 43 30 23 24 27 28 30 32 31 30 32 35 35 33 32 31 28 26 28 29 28
43 39 36 34 32 28 28 31 34 36 36 36 35 35 36 36 37 39 39 39 40 40 39 38 38 39 38 37 37 37 37 34 31 33 41 48 47 42 36 36 41 45 44 46 54 62 65 68 72 74 71 67 66 68 71 69 63 61 61 60 58 58 57 54 53 50 41 30 28 32 36 36 35 34 31 30 32 34 35 33 32 30 28 28 29 28 28
40 36 33 31 29 28 29 33 35 34 34 34 34 34 36 37 38 39 39 39 38 37 36 36 37 37 36 34 34 37 39 37 34 35 40 44 46 45 42 40 42 45 47 51 58 64 67 72 76 75 71 67 67 69 70 68 61 57 56 55 55 55 52 47 42 35 28 25 29 34 36 36 35 32 29 28 30 33 34 34 32 30 28 27 27 28 29
37 33 30 29 30 31 33 34 33 32 31 32 34 35 37 38 37 37 38 37 36 35 35 35 36 36 36 35 35 37 40 38 35 36 38 39 39 40 42 42 43 45 48 55 63 68 70 74 77 75 71 70 71 71 71 68 61 52 48 47 47 45 41 35 30 25 21 22 25 28 30 31 31 29 27 28 29 30 33 34 33 30 28 28 29 30 31
34 30 28 29 32 34 35 34 32 32 33 34 35 37 38 37 35 36 37 36 35 34 34 34 34 34 35 36 37 40 41 40 37 35 35 37 38 39 41 43 44 44 47 57 69 75 75 76 76 74 71 72 74 74 72 67 60 52 46 43 42 42 40 36 33 29 25 23 23 24 26 28 28 27 28 30 30 30 32 35 33 30 29 30 31 31 29
34 31 30 31 35 37 37 36 35 35 36 37 38 38 37 36 35 36 36 34 33 34 34 33 33 34 34 35 39 41 40 36 35 35 36 38 40 41 41 43 45 45 47 60 75 82 82 80 77 73 70 71 75 76 74 66 59 55 53 49 46 45 44 40 36 34 31 26 23 24 26 26 27 28 30 31 30 30 33 36 34 31 30 30 30 29 27
Wind_Speed
3 3 4 3 2 2 4 7 8 8 6 4 3 3 5 5 3 3 8 12 12 10 11 11 10 10 12 13 14 15 15 15 16 16 16 17 18 19 18 18 18 18 18 18 18 17 16 15 14 14 13 13 11 11 10 9 10 10 9 8 9 9 8 7 6 6 5 4 4 3 2 2 2 2 3 4 4 5 6 6 5 5 5 5 5 5 7
1 0 2 2 2 1 2 5 8 8 7 6 5 4 5 5 3 6 11 13 12 10 10 11 12 13 14 14 14 15 16 16 16 18 18 18 19 19 18 17 18 18 18 17 17 16 15 14 13 12 11 11 10 9 9 8 9 9 8 8 8 8 7 6 6 6 6 6 5 4 3 3 2 0 2 3 4 4 4 4 5 4 4 4 3 2 4
2 2 1 2 2 3 2 4 8 9 7 7 6 5 5 4 5 9 12 12 11 9 12 14 14 15 15 14 14 14 15 16 16 19 19 18 18 18 17 17 18 17 16 16 16 15 14 13 13 11 10 10 9 9 8 9 9 9 8 7 7 5 4 4 4 5 6 6 5 4 3 3 3 2 1 2 3 3 4 5 4 4 3 3 3 3 4
0 2 1 2 3 4 2 5 9 10 7 6 5 5 5 3 6 11 10 8 7 8 12 15 14 15 14 14 13 14 15 16 16 17 18 18 17 17 17 18 17 16 15 15 15 15 13 13 12 10 9 9 9 8 9 11 11 10 9 8 7 6 5 4 3 3 4 3 2 2 2 2 3 3 2 2 2 1 2 2 2 2 2 3 3 2 3
2 1 2 3 4 3 1 5 8 9 7 6 5 5 6 3 6 7 5 5 8 11 12 13 13 14 14 13 12 13 15 16 15 16 17 17 17 17 17 17 16 15 14 14 14 14 13 13 12 10 9 10 10 10 10 10 9 9 9 10 10 10 9 7 6 5 4 3 3 3 3 3 3 3 2 2 3 3 2 1 1 1 0 1 1 1 1
3 1 3 5 5 1 2 3 6 7 6 7 6 7 6 3 3 1 1 6 11 12 12 13 13 14 14 13 12 13 14 14 15 15 15 16 17 17 16 15 15 14 14 14 14 13 13 13 12 11 10 11 11 10 9 9 9 9 10 11 12 12 12 11 10 9 8 8 7 6 5 5 6 6 5 5 6 6 6 5 5 4 4 4 3 3 3
4 3 4 6 3 1 4 4 6 5 5 6 6 7 7 5 4 2 5 10 12 12 12 13 14 15 16 15 13 13 12 13 14 15 14 15 16 16 15 15 14 14 14 13 13 13 13 13 12 12 12 12 11 11 10 10 11 11 12 12 13 13 13 12 12 11 11 10 10 10 8 8 9 9 9 9 9 9 8 8 8 7 7 6 6 5 5
3 3 4 3 2 4 6 6 7 6 4 5 4 6 8 7 5 2 7 11 10 11 15 15 16 18 18 16 14 13 13 13 13 14 15 16 16 16 15 15 14 14 13 13 12 12 12 12 12 12 11 11 11 12 12 12 11 11 11 12 12 12 12 12 11 11 11 11 11 11 10 11 10 10 11 11 10 10 9 9 9 8 8 8 7 7 6
3 4 3 1 5 5 4 5 7 7 5 6 5 3 6 8 8 3 8 11 9 10 16 17 19 21 19 15 13 13 13 14 14 15 16 16 17 17 16 15 15 14 13 13 13 13 13 13 12 12 12 11 11 11 11 11 10 10 10 10 11 11 11 11 11 11 11 11 11 10 10 10 10 10 10 9 9 9 8 7 7 6 6 6 6 6 6
2 4 4 2 4 3 3 5 7 6 5 5 6 3 4 8 10 5 5 11 11 12 16 19 20 19 15 10 10 12 13 15 15 16 17 17 17 17 16 15 15 14 13 13 13 14 14 14 13 12 12 11 11 11 11 10 10 10 9 9 9 9 10 10 10 10 10 10 10 10 9 9 9 9 8 8 8 7 6 5 6 5 5 5 5 6 6
2 4 4 2 1 2 4 6 7 7 5 3 4 2 2 8 11 8 3 6 13 14 15 19 19 14 9 8 10 13 14 15 16 17 17 17 17 16 15 15 14 13 13 13 14 14 14 14 13 12 12 12 12 12 11 11 11 11 11 10 9 9 9 9 9 9 9 9 9 8 8 8 8 8 7 7 7 7 5 4 5 5 4 5 5 5 7
1 3 4 1 3 4 5 7 8 8 6 3 3 2 0 7 11 9 6 3 12 14 15 18 14 6 6 11 14 16 17 17 17 17 17 16 16 16 15 15 14 14 13 13 13 13 13 12 12 11 11 12 12 12 12 11 12 12 11 10 10 9 9 9 9 8 8 8 8 7 7 7 7 6 6 6 6 6 5 4 4 5 5 5 5 5 7
1 2 3 1 4 4 5 9 10 9 6 4 3 1 0 7 11 7 5 1 7 11 13 13 7 10 16 20 19 19 20 19 18 17 17 17 16 15 15 14 13 13 12 12 12 12 12 12 11 11 11 12 12 12 11 11 11 10 10 9 9 9 8 8 8 8 7 7 7 6 5 5 5 5 5 5 5 5 5 4 5 6 6 6 6 7 7
1 2 2 1 3 4 8 12 10 7 4 2 0 2 2 7 9 5 2 3 5 5 8 14 19 24 28 26 22 21 22 23 20 17 17 17 16 15 14 13 12 12 12 12 12 12 12 11 11 11 11 12 12 11 11 11 10 9 9 9 9 8 8 8 8 7 7 6 6 5 5 5 5 5 5 5 5 5 5 6 7 7 7 7 7 8 8
2 3 2 2 2 4 10 12 6 4 4 3 3 4 4 6 6 4 6 8 8 10 16 23 27 29 29 27 24 24 24 24 21 19 18 18 16 15 13 12 11 11 11 12 12 12 12 12 12 11 11 12 11 11 11 11 10 9 9 8 8 8 8 8 8 7 7 6 6 5 5 5 5 5 5 6 6 7 7 7 8 8 8 8 8 8 8
3 2 1 1 1 5 10 8 4 5 7 6 6 5 4 5 6 5 8 11 14 19 24 28 29 30 30 27 26 26 25 23 21 20 19 17 16 16 13 11 10 11 12 12 13 13 13 12 12 12 12 12 12 12 12 11 10 10 9 8 7 7 6 7 7 7 7 6 6 6 6 6 6 5 6 6 6 7 7 8 8 8 8 8 9 9 8
3 3 4 4 4 6 8 6 6 7 7 6 4 3 5 6 6 8 11 15 20 26 31 33 33 34 32 30 28 27 25 23 21 19 18 16 15 15 13 11 11 11 12 13 13 13 13 12 13 12 12 12 12 11 10 9 9 9 8 7 7 6 6 6 6 7 7 6 6 6 7 7 6 6 7 7 7 7 8 8 8 8 9 9 9 9 9
3 3 5 6 7 8 8 6 5 5 5 4 4 6 8 8 9 11 15 20 27 33 37 38 38 36 35 33 31 27 24 24 21 19 17 15 13 12 11 11 11 12 13 13 13 14 14 13 12 12 12 12 11 11 9 8 8 8 7 7 7 6 6 7 7 8 8 7 8 9 9 9 8 8 8 9 9 9 8 8 9 9 10 10 11 11 12
2 2 6 7 7 8 8 7 7 8 8 8 9 11 12 13 16 18 23 30 36 38 39 39 37 34 32 30 27 24 25 26 23 18 14 11 10 10 11 11 11 12 13 13 13 13 13 12 11 11 12 12 12 11 10 10 10 9 8 9 8 7 8 8 8 10 10 10 11 11 10 11 10 10 9 10 10 11 11 11 11 12 12 13 13 14 15
1 4 8 8 9 11 11 9 10 11 11 13 14 14 16 18 20 23 30 37 38 35 32 32 31 29 26 25 25 25 24 23 20 16 13 12 11 12 12 12 13 12 12 12 12 12 11 11 11 11 11 11 10 10 10 10 9 9 9 10 9 9 9 9 10 11 12 13 13 12 11 12 12 11 11 11 12 12 12 13 13 14 14 15 15 16 16
4 6 7 7 8 13 14 14 14 13 13 15 17 18 20 23 24 29 35 36 33 29 26 26 27 27 25 24 26 25 22 21 19 17 16 15 15 15 15 14 14 13 12 11 11 11 11 11 10 10 10 9 9 9 8 8 9 9 10 10 10 10 10 11 12 13 12 12 13 12 12 13 13 13 14 16 16 14 13 13 15 16 16 16 16 16 17
3 4 5 5 6 7 11 14 15 15 15 18 21 23 27 29 31 33 33 30 27 25 23 24 26 27 25 24 22 21 20 19 18 17 16 15 14 14 14 13 12 12 11 10 10 10 10 10 9 8 8 8 9 9 9 10 11 11 11 11 11 11 12 12 14 15 13 13 14 14 13 13 14 15 16 19 20 19 18 18 17 17 17 17 17 17 18
7 9 12 12 11 10 10 14 17 18 19 22 23 25 28 30 30 29 28 27 26 25 24 25 27 28 26 23 20 19 18 18 17 16 15 14 13 12 11 10 10 10 9 9 9 9 10 9 9 9 10 10 11 11 12 12 13 13 13 13 12 13 14 15 18 18 16 15 17 16 15 15 15 16 16 16 17 18 21 23 23 21 19 18 18 17 17
13 13 13 15 15 14 14 16 18 20 21 22 22 22 24 26 24 23 23 24 25 25 24 25 26 27 25 22 20 20 20 18 17 16 14 13 12 11 9 8 8 8 8 9 9 10 11 11 11 11 11 12 12 12 13 13 14 14 15 15 15 16 17 18 19 19 17 17 18 17 17 17 17 16 16 15 14 15 18 21 22 22 21 20 19 19 19
14 13 14 16 17 18 18 19 20 22 23 23 22 22 24 24 23 22 21 21 22 23 23 22 21 21 20 19 19 20 19 17 15 14 13 11 11 10 9 8 8 9 10 11 12 12 12 11 11 11 12 12 13 13 14 15 15 16 17 17 17 18 18 18 18 17 17 16 16 16 16 17 16 15 15 14 14 15 15 15 16 17 18 17 18 20 21
17 18 19 19 19 19 20 20 20 21 24 25 25 24 25 25 25 25 25 24 22 21 20 20 19 18 17 17 17 17 16 15 13 12 11 10 9 9 9 10 10 11 12 13 13 13 12 12 12 12 13 13 14 15 16 16 17 17 17 17 16 17 19 19 17 16 15 14 14 15 16 16 15 14 13 13 13 14 14 13 13 13 13 13 16 20 21
17 18 18 17 16 16 19 21 20 21 24 25 26 26 25 24 25 25 25 24 23 21 20 20 19 18 18 17 16 15 14 12 11 10 9 9 10 10 11 12 13 13 14 14 13 13 13 13 14 14 14 15 16 17 17 18 18 18 18 17 16 17 19 19 17 15 14 14 14 16 16 14 13 13 13 13 13 12 12 12 13 12 12 12 15 18 19
20 19 19 19 18 19 22 24 24 23 24 25 25 25 23 22 22 23 22 23 22 22 20 19 18 17 16 15 14 13 12 10 9 9 9 10 12 13 13 14 14 14 14 13 13 14 14 14 15 15 16 17 18 18 18 18 18 18 17 17 17 17 18 18 16 15 14 14 14 15 15 14 13 13 13 13 13 12 12 13 13 13 13 15 17 18 18
22 24 25 26 26 25 24 24 24 24 24 23 23 23 23 23 22 21 20 19 19 18 17 16 15 15 14 13 11 10 9 8 8 9 12 14 15 15 14 13 13 12 13 13 14 14 14 15 16 17 18 18 18 18 17 16 16 16 16 16 17 17 17 17 17 15 15 15 15 16 16 15 14 14 14 15 14 14 14 15 15 15 16 19 22 23 23
21 23 22 23 23 23 22 22 22 22 21 20 20 19 21 22 21 19 17 16 16 16 15 14 13 13 11 10 8 7 7 9 11 13 16 17 16 14 13 11 11 12 12 13 14 14 15 16 17 18 18 17 16 16 15 15 15 15 15 17 18 19 19 19 19 17 16 16 17 17 16 15 16 16 16 16 16 15 15 16 16 16 17 19 23 26 26
20 18 17 18 18 18 19 19 19 18 17 17 17 17 17 18 17 16 14 14 14 14 12 11 9 9 8 8 9 9 11 13 15 17 17 16 15 13 11 9 10 11 12 13 14 14 15 15 16 16 15 15 15 15 14 14 14 15 16 16 18 19 20 20 20 19 17 16 16 16 15 15 16 16 16 16 16 16 15 16 16 16 17 18 21 24 26
20 18 17 18 18 18 18 18 17 17 16 15 15 15 14 14 14 13 12 12 11 10 9 8 8 10 11 11 12 13 14 16 17 17 17 15 13 12 10 9 10 11 11 11 12 13 14 14 14 14 14 14 14 14 14 14 15 15 15 14 15 17 19 19 17 16 16 15 15 15 15 15 14 15 15 16 16 15 15 15 16 16 17 17 19 21 23
20 18 17 17 17 17 17 16 16 15 14 13 12 12 11 11 11 10 10 9 9 9 10 11 12 13 13 13 13 14 16 17 17 16 14 12 11 10 9 8 8 9 10 11 12 13 13 13 13 13 13 13 13 13 13 14 15 15 14 12 12 13 15 16 15 13 13 13 14 14 14 14 14 14 14 15 15 15 15 15 15 16 16 16 16 18 20
18 18 18 17 17 17 16 15 15 14 13 12 11 10 9 9 9 9 10 11 12 12 13 14 14 14 13 13 13 14 14 15 14 13 12 11 9 8 7 7 7 8 9 10 11 12 12 11 12 13 13 13 13 12 12 13 13 13 13 13 12 11 12 13 13 12 12 12 13 13 13 14 14 14 14 14 14 14 15 15 15 15 16 15 15 16 19
15 16 16 14 14 15 15 15 14 13 12 11 10 9 9 10 11 12 13 13 13 13 13 13 13 13 13 13 13 12 12 12 12 11 10 9 7 6 5 6 6 7 9 10 11 11 11 10 11 12 12 12 12 11 11 12 12 12 12 12 12 11 11 11 12 12 13 12 13 13 14 15 15 15 14 14 14 14 15 15 15 15 15 16 16 16 18
14 15 13 12 12 13 13 12 11 11 11 11 12 12 13 14 14 14 13 13 12 13 13 13 13 13 12 12 12 11 11 12 11 10 9 7 5 5 5 4 4 4 7 9 11 11 10 9 10 12 12 11 11 11 10 10 11 11 11 11 10 10 10 11 11 11 12 12 12 12 13 13 14 14 14 14 15 15 14 14 15 15 15 15 16 16 16
10 11 11 12 12 12 11 10 11 12 13 13 14 15 15 15 13 12 12 13 13 13 13 13 12 12 12 11 11 11 11 10 9 8 7 5 4 4 3 3 3 3 4 6 9 9 8 8 10 11 12 11 10 10 10 10 10 9 9 9 9 9 9 9 10 10 10 11 11 11 11 11 12 12 13 13 14 15 15 15 14 14 14 15 15 16 16
8 9 12 14 13 12 12 11 12 14 14 15 15 15 14 13 12 12 13 14 14 13 12 12 11 12 12 11 11 10 9 8 7 6 5 4 3 3 2 2 2 3 3 5 7 8 7 8 9 11 11 11 10 10 10 10 10 8 7 7 8 8 8 8 9 9 9 9 10 10 11 11 11 11 12 12 13 14 16 16 15 14 14 14 15 15 16
7 9 13 15 15 15 15 15 15 14 13 13 14 14 12 12 13 14 14 14 14 13 12 11 11 11 11 10 9 8 7 6 6 6 5 3 2 2 1 1 3 3 4 6 7 7 6 7 9 10 11 11 11 10 10 10 9 8 7 6 7 7 6 6 7 8 8 9 10 10 10 11 11 12 12 12 12 13 14 16 15 14 13 14 14 15 16
11 14 17 18 19 18 18 16 15 13 12 11 12 13 13 13 14 14 14 14 14 13 11 10 10 10 9 8 7 7 6 5 5 5 5 4 3 2 2 2 3 5 6 7 7 7 7 7 7 7 9 11 10 9 9 9 8 6 5 5 5 5 5 6 6 6 7 8 9 9 9 9 11 11 11 12 12 12 12 13 14 13 13 14 14 14 15
16 18 19 20 20 18 16 15 14 13 12 12 12 13 13 14 14 14 14 14 14 12 10 9 8 8 7 6 6 6 5 5 6 6 5 4 3 3 4 4 5 7 7 7 8 8 8 7 6 5 8 10 10 9 9 8 6 4 4 4 4 4 5 5 5 6 7 7 8 8 8 8 9 10 10 10 11 12 12 12 12 13 13 14 14 15 15
21 21 20 20 18 16 14 14 14 14 13 13 13 14 14 14 13 13 13 12 12 11 9 8 7 7 6 5 5 5 5 5 6 6 6 5 4 5 5 5 7 8 8 8 9 9 8 7 6 6 8 10 10 9 8 6 4 3 3 3 3 3 4 4 5 5 6 6 6 7 7 8 8 9 10 10 10 12 13 13 12 13 14 15 15 15 16
22 21 19 17 15 14 14 13 13 14 14 14 14 15 15 14 12 12 12 11 10 9 8 7 7 7 6 5 5 5 5 6 7 7 6 6 6 6 4 4 6 8 8 8 8 7 4 4 6 8 9 10 9 8 7 4 2 2 2 2 2 2 3 3 4 4 5 5 6 6 7 8 8 9 10 10 10 11 13 13 13 13 15 15 15 16 16
22 20 17 15 14 14 13 13 13 14 14 15 15 15 14 13 12 11 10 10 9 8 8 7 6 6 5 5 5 5 4 5 6 6 6 6 7 6 5 5 7 9 9 9 8 6 5 6 7 9 10 10 8 7 5 3 1 2 2 1 1 1 2 2 3 4 4 5 5 5 6 8 9 9 11 12 11 12 13 14 14 14 15 16 16 16 17
21 19 17 15 15 14 13 13 13 14 14 14 15 15 14 12 11 10 10 9 8 7 7 7 6 5 5 5 5 4 4 4 5 5 5 6 7 6 6 8 10 10 11 11 9 7 7 8 9 9 10 9 7 6 4 2 2 2 2 1 1 1 1 2 3 3 4 4 5 5 6 8 8 9 11 13 13 13 14 16 16 15 16 17 17 18 19
22 19 17 15 15 14 13 13 13 13 13 14 15 15 14 12 11 10 9 9 8 7 7 7 6 6 5 5 5 4 4 4 5 5 5 6 7 7 8 10 11 11 12 12 10 9 9 10 10 9 9 7 6 5 4 3 3 2 2 2 2 1 2 2 3 3 4 4 5 5 6 7 8 9 12 14 14 14 15 17 16 16 16 18 19 20 21
22 19 17 16 15 14 14 13 13 13 14 15 14 14 13 12 11 9 9 8 8 8 7 7 6 6 5 5 4 4 4 5 6 6 6 6 7 9 10 11 11 12 13 12 11 11 11 10 9 9 8 6 6 5 4 4 3 3 3 3 2 2 3 3 3 3 4 5 6 6 7 8 9 10 12 14 14 15 16 17 17 17 18 20 20 21 22
22 20 18 16 15 15 14 14 13 13 14 14 13 12 12 12 11 9 9 9 9 8 8 7 7 7 6 5 5 4 4 4 6 6 4 5 7 10 13 13 13 14 14 13 12 12 11 10 9 8 7 6 6 4 4 4 4 4 4 4 3 3 3 4 4 4 5 6 5 6 6 7 8 10 12 14 15 16 17 18 18 18 19 19 20 21 22
21 19 18 17 16 15 14 13 13 12 12 12 12 11 11 11 10 9 9 9 9 9 8 8 8 7 6 6 5 5 5 5 5 6 6 7 9 12 14 15 15 15 14 13 13 12 11 9 8 8 7 5 4 4 5 6 5 5 5 5 5 5 5 6 6 6 6 6 5 6 7 7 9 11 13 14 15 17 18 18 18 18 19 20 21 22 23
21 20 19 18 17 16 14 13 12 11 11 11 11 10 10 11 10 9 9 10 9 9 9 9 8 7 6 6 5 6 6 6 7 8 9 11 13 14 15 16 16 16 14 13 12 12 11 8 7 7 7 5 4 5 7 7 6 5 5 5 5 6 7 8 8 8 7 7 7 7 8 9 10 12 14 15 16 18 18 18 18 19 20 21 22 23 23
21 20 19 18 16 15 13 11 10 10 10 10 10 10 10 10 9 9 9 10 10 10 9 9 8 7 6 5 5 6 6 7 8 9 10 12 14 15 16 17 17 16 14 12 11 11 11 9 8 8 8 7 6 8 9 9 7 6 6 6 6 7 8 9 9 9 9 8 8 9 10 10 12 13 15 16 18 19 19 19 19 20 21 21 22 22 23
21 19 18 17 15 14 13 11 10 10 10 10 10 10 10 10 9 9 10 11 11 10 10 9 8 7 7 6 5 6 7 8 9 10 11 13 14 16 17 17 17 16 14 12 10 9 10 10 9 8 8 7 7 9 10 10 8 6 6 7 7 8 9 9 9 9 10 10 10 10 11 12 13 14 15 16 18 19 19 19 19 20 21 21 22 22 23
Wind_Direction
346 343 342 341 313 339 0 356 10 17 11 19 32 31 25 11 8 100 132 131 123 129 134 126 126 125 117 113 112 112 115 116 117 119 119 117 115 112 109 106 103 99 96 92 89 87 86 86 87 87 86 88 90 92 95 97 98 98 99 101 99 96 99 106 111 113 116 120 119 118 125 141 172 197 207 214 212 213 220 222 221 226 230 239 254 261 260
267 339 337 334 303 291 359 5 13 20 29 46 57 56 44 32 59 123 139 129 120 127 129 123 126 124 118 117 117 118 120 120 120 120 118 116 115 112 110 107 102 97 93 90 87 85 84 85 87 87 86 89 90 94 100 100 100 103 107 107 102 98 101 107 104 101 106 113 113 108 102 92 86 177 227 224 214 220 229 224 219 226 236 247 258 274 277
208 141 264 248 259 280 300 22 20 14 27 49 54 51 40 39 98 129 136 127 121 132 131 126 128 126 122 122 122 121 120 122 122 120 119 118 117 114 112 107 101 96 92 89 85 82 80 81 84 83 85 90 90 93 101 106 107 106 104 101 98 91 96 106 106 103 106 107 102 97 89 80 83 100 188 211 200 210 224 222 224 232 249 262 258 264 279
268 110 285 265 259 278 327 30 12 3 15 30 38 46 25 26 121 135 143 139 135 139 133 130 132 131 128 127 127 128 128 127 126 123 122 122 119 116 112 105 100 96 90 84 80 77 77 77 78 82 88 92 92 98 105 106 103 93 84 82 82 79 77 81 89 98 109 111 85 70 77 85 98 109 128 158 142 156 219 235 245 248 261 269 264 267 279
307 69 342 298 264 245 88 32 357 349 4 12 26 50 37 50 131 143 159 147 138 143 140 138 139 136 133 132 134 133 131 130 128 123 122 121 116 112 109 104 101 96 88 81 77 75 75 75 77 87 98 98 97 101 101 97 89 77 74 76 77 79 79 78 76 74 76 80 75 77 84 85 91 98 100 103 99 100 108 104 102 115 113 52 46 34 348
289 338 314 272 250 217 88 40 358 354 3 6 21 45 50 72 100 82 101 120 134 147 144 139 140 137 132 132 131 129 128 130 129 122 118 117 113 109 108 104 100 95 88 82 78 75 75 76 78 86 92 93 93 93 90 88 85 81 79 79 77 77 77 78 78 78 79 82 83 82 82 81 86 89 91 93 94 96 96 90 85 77 69 64 60 51 32
291 306 283 265 257 88 97 72 31 17 12 9 32 59 65 67 54 48 125 130 139 146 140 138 139 133 128 127 123 121 124 125 123 120 118 117 112 108 106 103 98 94 90 84 79 76 76 78 83 88 90 89 89 90 89 89 88 85 81 78 77 74 73 73 76 77 81 83 83 83 85 87 88 90 90 91 91 90 87 83 77 72 70 68 65 63 60
289 272 268 275 90 107 114 81 38 21 6 358 30 72 62 44 26 59 127 134 146 148 141 140 136 126 122 119 115 115 118 119 120 119 117 114 111 109 108 106 102 97 92 85 80 77 78 82 88 92 92 89 89 90 90 89 88 86 81 78 76 75 74 74 75 76 79 80 81 81 81 83 84 86 86 85 83 79 74 72 70 67 66 65 61 58 56
286 276 278 137 114 110 104 67 36 24 14 352 348 44 60 34 8 29 130 143 160 152 140 137 134 130 125 116 110 113 114 115 117 115 113 112 112 112 111 108 104 99 93 86 81 80 81 84 89 92 92 92 93 92 90 89 89 86 82 78 75 75 75 74 74 75 76 78 79 79 78 78 78 77 76 73 74 70 62 57 57 53 50 48 45 44 42
273 280 278 214 163 121 57 38 25 15 11 356 340 344 51 27 2 350 149 153 158 153 146 145 143 138 132 122 119 120 115 114 115 114 115 115 114 114 113 109 106 101 93 86 81 79 80 82 85 90 93 93 94 92 91 90 90 87 84 81 77 74 73 72 71 72 72 73 75 73 73 72 69 66 62 59 61 62 52 39 34 32 27 13 8 11 10
251 271 276 275 174 92 35 12 358 348 351 358 340 319 43 11 355 334 291 164 156 157 157 157 157 155 146 136 131 127 123 122 121 119 118 118 116 114 113 110 106 100 94 88 80 76 78 80 84 89 92 93 92 90 89 88 86 84 80 78 76 74 72 69 66 66 65 66 67 64 62 62 61 57 51 46 47 45 37 21 9 7 1 347 342 342 349
241 269 269 329 81 77 27 357 343 333 327 301 272 212 79 347 345 336 311 204 164 167 170 168 173 176 141 136 135 131 127 125 123 121 119 118 116 114 111 108 105 100 94 88 80 76 77 80 85 88 90 92 90 87 86 84 81 78 74 72 71 70 67 64 61 59 57 55 55 53 49 47 46 44 38 30 25 20 14 359 344 339 340 340 335 329 341
226 264 259 150 92 73 10 349 337 325 305 262 250 156 62 334 340 338 314 251 161 175 182 171 136 91 110 124 125 124 124 121 118 117 115 112 111 111 110 107 104 100 94 86 80 78 77 79 83 87 88 89 86 84 81 77 71 68 64 62 61 59 56 53 50 49 44 39 39 37 30 24 18 15 8 356 348 349 345 332 324 324 325 327 327 324 327
267 260 261 187 113 68 355 337 331 327 306 244 51 45 26 348 348 352 20 83 127 162 147 123 111 112 122 126 120 117 122 119 112 108 109 110 110 111 110 107 103 100 94 88 82 78 78 79 80 83 85 84 82 79 73 67 62 59 56 55 53 50 48 44 38 34 28 21 19 16 7 1 353 344 337 331 325 322 318 314 315 316 316 316 316 315 316
286 247 259 252 160 47 359 340 342 19 9 354 359 9 24 24 16 29 60 79 108 117 101 102 110 118 125 126 121 121 124 121 115 112 115 117 115 111 108 105 104 102 96 90 84 79 78 77 76 77 78 77 75 71 65 59 55 52 50 49 47 45 43 37 29 24 17 9 6 360 349 345 341 333 326 322 316 311 310 311 310 310 310 309 309 311 312
303 276 29 7 358 17 4 347 343 4 357 340 331 346 28 43 43 64 76 87 114 121 110 106 109 113 114 116 117 116 115 114 112 110 111 115 115 113 108 103 101 100 96 91 85 80 77 73 72 71 70 70 68 65 61 56 52 50 49 48 48 43 34 28 22 16 11 5 2 358 351 348 343 332 325 322 319 312 310 309 309 309 308 306 306 308 309
13 12 33 37 26 14 6 352 334 337 340 335 335 24 65 56 59 90 102 107 119 125 119 110 106 106 106 104 102 100 98 98 98 98 99 105 111 115 113 106 100 96 93 89 83 78 74 71 70 70 67 66 63 56 53 50 47 47 45 41 41 34 21 16 9 4 3 0 353 351 353 353 347 336 329 330 327 321 317 314 311 310 309 308 306 306 307
70 56 35 31 27 18 10 6 2 358 7 24 57 83 84 79 88 104 113 116 118 120 118 110 103 101 101 99 97 97 97 94 91 89 90 94 102 109 109 106 102 96 90 85 79 78 76 71 68 66 63 61 57 49 47 44 41 40 35 29 27 15 2 357 349 348 351 343 334 336 338 338 335 327 324 325 324 321 320 317 313 313 313 311 309 307 306
148 79 50 41 32 25 23 36 54 57 58 70 86 94 95 99 105 111 117 119 116 114 113 110 106 104 105 105 106 108 106 102 96 94 94 97 103 106 104 103 101 95 90 85 80 78 75 69 64 61 58 56 53 49 45 38 34 30 21 18 13 359 350 347 339 338 336 327 324 328 327 324 323 319 317 317 316 315 314 311 310 310 310 308 309 308 306
101 78 77 74 60 49 48 60 71 74 80 87 91 96 101 106 109 114 120 120 117 113 112 111 111 112 113 115 117 117 116 114 112 114 117 115 111 109 107 106 103 97 94 91 85 79 74 67 60 55 52 48 43 39 33 26 23 18 9 7 4 355 353 349 339 335 333 329 328 328 324 322 321 318 315 316 317 316 316 314 312 311 310 308 307 305 304
100 91 93 93 76 58 55 67 80 86 92 96 98 103 109 112 115 120 124 123 118 114 114 116 118 121 124 126 126 125 125 125 123 122 121 117 113 111 109 107 104 99 95 90 84 77 70 61 53 48 45 41 36 32 27 22 21 20 17 15 10 4 1 354 344 342 343 339 336 334 330 328 327 323 321 322 323 323 323 321 321 320 319 317 311 306 304
130 89 78 89 97 73 62 76 88 93 98 103 108 115 119 121 123 125 126 125 120 116 120 124 124 126 129 131 130 128 125 124 122 121 118 115 114 111 107 103 100 95 88 81 74 69 63 57 53 52 51 49 43 38 33 28 26 26 25 22 14 7 3 353 344 344 345 340 336 337 335 331 330 328 327 326 326 324 320 319 321 323 323 321 317 312 308
97 98 100 103 109 104 92 95 98 99 104 109 112 116 122 124 124 123 122 121 119 118 122 124 124 125 126 127 125 122 120 119 119 118 115 113 110 107 102 97 92 85 77 69 65 66 66 66 66 62 58 55 48 39 33 28 23 19 16 12 6 0 354 344 337 337 338 333 331 332 331 329 328 327 326 326 324 319 314 312 314 317 319 319 317 314 312
104 110 111 110 110 107 104 104 102 103 108 110 108 113 120 123 123 121 119 119 119 120 121 121 120 119 120 122 122 122 120 118 116 113 111 109 106 103 99 94 85 79 76 74 74 77 79 77 71 63 57 51 42 34 26 18 11 4 358 353 348 342 337 333 331 332 333 330 329 329 328 327 328 328 326 325 322 319 318 318 319 320 323 324 323 320 318
117 122 117 111 108 107 107 104 101 104 107 107 108 113 119 122 122 120 118 118 119 119 120 120 119 118 119 120 122 122 120 117 114 112 110 107 104 101 97 92 88 87 87 87 87 85 81 73 63 53 45 36 27 19 11 4 358 352 349 346 342 336 333 334 335 336 336 335 334 334 332 331 332 333 333 331 330 328 329 330 331 333 336 335 328 322 320
111 116 116 112 108 108 110 108 103 105 108 108 110 115 117 119 121 119 119 120 120 118 119 121 121 122 121 121 122 122 120 117 115 112 109 104 101 99 95 94 95 95 94 93 90 81 69 56 44 34 26 20 13 7 3 359 355 353 353 353 351 343 340 342 345 344 344 344 341 339 339 340 341 341 339 339 338 337 337 340 341 344 347 342 328 322 323
108 113 115 111 101 101 109 112 112 115 114 111 112 112 112 114 116 115 116 118 119 118 119 119 121 123 122 122 123 121 118 116 114 110 106 102 99 98 97 99 100 98 94 89 78 64 51 39 29 22 17 14 9 5 2 0 359 358 359 358 355 348 345 348 353 354 354 353 349 348 351 353 353 351 349 349 349 349 350 352 354 354 358 355 344 339 341
102 109 115 113 106 106 111 114 116 117 115 113 113 114 113 113 112 111 112 114 114 115 115 116 118 119 118 118 119 116 114 115 114 111 107 102 99 99 101 102 101 96 88 77 62 50 41 32 23 17 13 10 7 5 5 4 4 4 2 358 356 354 354 358 6 10 7 4 5 9 14 12 7 5 7 7 8 10 11 13 14 15 17 15 10 8 11
103 110 113 113 115 116 117 117 118 117 115 115 116 119 120 118 113 109 109 111 112 112 112 113 115 115 115 115 115 114 117 121 118 111 104 101 100 101 101 99 94 85 74 62 51 42 34 26 18 12 9 7 7 9 12 12 11 10 7 4 6 9 11 17 25 27 22 22 28 32 31 28 26 28 28 27 29 29 28 28 29 27 23 20 18 19 22
107 110 112 113 116 117 115 115 116 115 115 115 115 116 117 115 111 108 109 112 114 113 113 113 113 111 111 111 109 111 118 119 113 108 105 105 104 102 97 91 84 74 63 51 42 34 27 19 12 8 8 11 14 17 19 20 19 18 17 18 19 21 24 31 38 40 37 36 38 38 35 34 35 36 35 33 33 33 30 29 29 27 23 22 21 21 22
115 113 114 116 117 114 111 112 112 111 112 115 115 115 116 114 112 111 112 114 116 115 113 113 112 108 106 105 106 111 115 115 112 111 111 110 107 102 97 89 78 66 53 41 33 27 21 13 8 9 15 20 22 22 22 23 26 27 28 28 25 26 29 36 42 45 45 42 39 36 35 35 34 33 34 33 31 30 29 28 28 28 26 25 24 23 25
124 119 119 120 119 116 114 116 117 117 119 121 120 120 121 120 119 120 120 121 122 120 116 115 113 110 108 108 109 112 112 112 111 112 112 108 102 95 89 79 65 53 42 33 27 21 15 12 13 19 24 24 23 23 24 27 31 33 34 33 28 26 30 39 44 44 40 38 37 35 35 35 32 31 33 32 29 29 29 28 28 28 27 26 25 23 23
131 129 129 130 128 125 123 125 125 125 127 128 125 123 124 124 126 129 129 126 124 121 118 116 113 109 107 107 110 112 113 112 112 113 111 106 98 90 80 68 55 44 35 29 22 16 15 16 20 24 25 24 24 24 25 30 35 36 36 37 32 25 26 33 40 41 36 34 36 35 33 35 35 33 33 33 31 31 32 31 30 29 27 27 25 19 15
138 138 139 139 138 137 135 135 135 135 134 134 131 129 129 131 133 131 126 123 121 120 118 114 110 108 108 110 114 118 118 118 118 117 114 108 101 93 77 61 49 39 32 26 20 15 15 19 24 26 25 24 23 23 25 32 36 35 33 33 32 29 27 28 33 39 40 38 40 42 41 42 43 42 40 38 36 35 35 33 32 30 27 26 25 17 12
138 140 141 141 141 143 143 142 143 144 143 140 138 136 134 133 130 125 122 121 121 120 118 116 115 117 118 120 123 125 124 124 124 122 118 113 105 92 74 61 52 39 27 21 15 12 14 20 25 28 27 24 21 19 22 31 35 33 32 32 29 28 30 31 33 39 43 43 44 45 45 45 45 45 43 40 37 36 35 33 32 31 27 24 24 19 14
146 149 151 148 146 147 148 148 149 151 149 144 140 136 131 127 125 123 124 124 123 123 124 125 126 127 127 128 130 130 129 128 128 126 123 118 108 95 87 82 75 52 31 19 11 8 12 19 23 26 26 22 16 11 14 25 33 32 29 31 31 29 32 36 37 40 44 45 44 44 42 41 41 41 41 39 38 37 35 32 30 30 27 23 22 21 17
157 160 163 161 157 156 158 157 154 153 149 143 138 135 131 127 126 126 127 128 128 129 131 132 132 133 133 132 132 133 133 134 134 132 131 128 117 106 98 84 69 62 45 21 6 5 11 17 20 24 22 14 6 2 5 17 33 35 27 27 33 34 36 39 42 43 44 44 43 42 41 40 38 38 38 39 38 38 38 36 31 28 25 23 21 20 19
168 169 173 173 169 168 166 158 150 149 147 141 136 135 134 132 131 131 131 131 133 134 135 136 136 137 136 135 135 137 140 143 146 146 147 144 130 119 110 61 29 33 27 7 359 2 8 11 15 21 17 5 356 355 358 9 28 38 32 27 33 37 38 41 44 45 45 44 44 43 42 41 42 40 38 36 35 34 34 35 32 26 22 21 19 18 18
170 163 163 163 161 157 152 145 139 141 146 145 140 138 137 136 136 135 134 135 137 137 138 139 139 140 141 140 140 145 152 159 162 162 165 170 166 162 191 320 348 356 354 353 355 358 0 5 13 17 11 1 355 351 350 360 19 33 31 28 33 37 38 40 40 39 39 39 42 43 42 41 43 41 37 34 32 28 25 26 27 24 19 18 17 15 14
163 154 151 150 148 146 142 139 137 139 143 147 147 144 141 139 139 139 139 139 136 135 139 143 142 144 149 150 150 157 170 179 179 180 188 197 204 217 250 296 333 345 345 348 353 353 353 2 13 13 3 359 355 344 342 355 15 29 28 26 32 35 38 41 41 38 35 33 34 36 37 36 36 36 33 29 26 24 21 19 19 17 15 14 14 12 10
159 153 149 147 146 143 142 142 142 142 143 146 148 146 142 142 142 143 144 143 138 135 141 148 147 148 156 160 162 174 192 200 197 197 202 211 244 292 298 295 312 329 334 336 339 341 345 356 9 8 356 353 349 339 340 357 18 24 16 21 33 37 35 37 36 35 33 31 29 30 31 28 26 25 23 21 18 18 18 17 14 11 10 10 9 8 6
157 153 150 148 147 147 149 151 151 150 150 151 151 148 145 145 146 146 147 149 146 144 148 155 157 159 164 167 172 188 204 208 210 217 220 224 256 302 315 304 307 318 321 320 325 332 338 345 352 354 352 348 341 335 341 0 16 6 357 11 31 35 32 34 33 31 28 27 26 26 27 26 22 17 15 14 12 11 13 14 9 5 6 6 5 4 2
156 154 153 152 152 154 156 157 157 156 156 156 156 153 149 148 150 150 151 154 157 158 162 166 167 170 175 180 188 199 209 214 220 228 233 239 258 282 295 296 305 314 315 312 314 319 322 320 327 339 346 344 335 332 342 359 6 340 339 357 17 24 28 28 27 25 25 24 22 21 20 21 19 14 11 11 9 7 8 10 5 1 2 3 1 360 359
160 158 159 160 160 159 158 158 161 162 162 161 161 159 155 154 157 158 159 162 166 170 174 178 180 183 192 200 204 213 226 230 230 236 248 267 280 283 282 289 305 314 314 308 302 295 290 300 314 330 338 336 329 333 348 357 328 309 315 324 354 8 13 15 14 16 17 15 15 13 11 12 14 10 7 6 7 6 4 3 2 360 360 360 358 356 357
164 164 167 169 166 163 161 161 164 166 167 166 166 166 165 165 167 169 171 175 178 180 183 188 193 198 203 207 213 227 243 247 244 248 266 287 297 297 296 303 311 314 311 306 297 285 286 299 313 327 332 328 325 336 346 328 285 291 294 266 274 320 341 350 355 356 355 0 5 5 2 4 6 3 359 1 5 4 359 358 0 360 356 354 354 354 354
169 170 174 172 166 162 163 164 166 168 169 170 172 174 175 176 178 181 185 187 190 192 193 196 200 204 206 210 221 236 247 251 252 256 268 283 293 297 300 305 310 312 310 304 294 283 285 298 312 322 325 323 326 336 329 294 275 278 266 253 268 293 302 317 333 338 337 342 347 351 354 359 1 357 355 358 1 359 355 356 358 355 351 350 352 352 352
174 174 173 169 165 165 166 167 167 170 171 174 177 181 184 185 187 191 194 197 199 199 199 199 200 204 207 214 228 244 259 271 277 276 270 269 283 297 304 304 305 308 308 302 290 281 284 298 313 318 316 319 330 328 297 266 268 271 257 256 271 278 282 301 319 320 315 320 329 339 347 352 354 353 352 353 354 352 351 352 353 350 348 349 350 350 350
177 173 170 168 168 168 167 166 168 173 176 178 181 185 188 191 194 197 202 203 201 200 201 201 201 204 209 217 228 241 259 281 295 299 283 264 279 297 304 303 304 308 308 301 291 283 284 295 309 311 307 318 331 321 272 254 264 263 252 258 271 270 273 290 297 290 293 307 323 332 334 336 339 344 347 348 348 348 347 348 349 347 345 345 347 348 348
176 172 170 170 170 167 166 168 172 175 178 180 183 184 186 191 198 205 209 207 203 202 202 201 202 207 215 222 227 233 244 259 277 289 288 281 285 293 298 302 306 310 306 297 288 282 283 292 302 303 301 311 318 288 261 263 273 268 258 263 269 267 271 281 283 280 283 297 309 315 318 323 328 334 339 343 344 344 344 344 344 342 341 343 347 349 348
175 175 174 172 170 169 170 173 176 177 177 179 182 184 186 193 201 207 209 206 203 202 203 202 203 208 217 222 224 232 246 260 270 279 286 290 292 294 298 303 308 310 305 292 281 278 280 284 291 295 296 293 273 260 265 273 275 271 271 275 276 278 287 295 296 292 291 293 300 306 311 315 320 326 332 337 339 339 339 339 339 340 342 345 347 346 345
179 179 176 172 171 173 175 175 177 180 180 181 184 187 193 198 203 206 205 204 201 201 203 205 205 207 213 220 224 232 247 266 278 285 290 293 294 297 301 304 308 309 303 286 270 269 274 279 285 297 301 289 265 264 277 281 273 267 276 285 285 286 294 301 303 301 297 293 295 301 305 310 316 322 327 331 332 333 334 336 338 340 343 344 343 342 342
182 179 176 174 174 176 178 181 184 186 186 188 192 196 199 202 205 205 206 206 203 201 205 209 210 210 213 219 226 238 256 271 281 289 292 293 295 300 304 307 310 310 302 283 261 253 258 266 277 294 302 288 263 262 276 282 276 265 271 282 288 293 296 298 300 300 298 296 296 298 301 305 311 315 318 321 325 328 330 332 335 337 339 339 339 340 341